Location: *
(58.7167°N, 26.1833°E)
Time: 18:59:21
(UTC+00:00)

Cosmos 1125 Rocket - Pass Details

Date: 25 August 2019
Orbit: 757 x 781 km, 74.0° (Epoch: 17 September)

Event Time Altitude Azimuth Distance (km) Brightness Sun altitude
Exits shadow 19:59:03 21° 171° (S) 1,689 4.8 -15.2°
Maximum altitude 20:02:15 45° 109° (ESE) 1,048 3.8 -15.5°
Drops below altitude 10° 20:07:15 10° 38° (NE) 2,331 6.2 -15.8°
Sets 20:09:44 0° 33° (NNE) 3,266 7.1 -16.0°
